Date,TemperatureHighF,TemperatureAvgF,TemperatureLowF,DewpointHighF,DewpointAvgF,DewpointLowF,HumidityHigh,HumidityAvg,HumidityLow,PressureMaxIn,PressureMinIn,WindSpeedMaxMPH,WindSpeedAvgMPH,GustSpeedMaxMPH,PrecipitationSumIn
2013-8-1,88.0,75.8,66.0,73.0,68.9,66.0,100,82,50,0.00,40.00,5,1,11,0.01
2013-8-2,89.0,73.8,62.0,72.0,67.0,62.0,99,82,45,0.00,40.00,2,0,7,0.00
2013-8-3,91.0,75.8,65.0,75.0,69.9,65.0,99,84,50,0.00,40.00,2,0,10,0.00
2013-8-4,86.0,75.8,68.0,70.0,65.5,60.0,99,74,43,0.00,40.00,5,2,15,0.03
2013-8-5,85.0,70.9,60.0,71.0,64.6,60.0,99,82,60,0.00,40.00,4,1,11,0.02
2013-8-6,84.0,72.9,67.0,73.0,69.2,67.0,99,89,68,0.00,40.00,4,1,15,0.00
2013-8-7,82.0,73.9,68.0,75.0,71.3,68.0,99,92,75,0.00,40.00,2,0,8,0.00
2013-8-8,86.0,74.9,69.0,78.0,72.6,69.0,100,93,67,0.00,40.00,2,0,38,0.57
2013-8-9,93.0,77.8,70.0,79.0,74.0,70.0,100,90,63,0.00,40.00,2,0,11,0.53
2013-8-10,86.0,74.5,69.0,78.0,72.3,69.0,100,93,69,0.00,40.00,3,0,8,0.27
2013-8-11,91.0,73.1,66.0,77.0,71.2,66.0,100,95,62,0.00,40.00,4,1,17,0.94
2013-8-12,93.0,76.0,68.0,78.0,71.7,68.0,100,88,56,0.00,40.00,12,1,34,0.72
2013-8-13,86.0,72.4,66.0,76.0,68.5,-99.9,100,91,65,0.00,40.00,3,0,15,0.82
2013-8-14,81.0,68.7,63.0,70.0,57.0,-99.9,99,74,38,0.00,40.00,4,1,11,0.01
2013-8-15,79.0,60.0,54.0,61.0,47.0,-99.9,99,79,51,0.00,40.00,4,1,10,0.00
2013-8-16,75.0,60.2,50.0,63.0,53.5,-99.9,99,85,59,0.00,40.00,3,1,10,0.00
2013-8-17,69.0,61.3,54.0,64.0,59.3,54.0,99,93,72,0.00,40.00,4,1,12,0.19
2013-8-18,76.0,67.5,63.0,68.0,63.8,-99.9,99,91,74,0.00,40.00,4,1,12,0.32
2013-8-19,79.0,67.8,64.0,71.0,60.1,-99.9,99,94,74,0.00,40.00,1,0,5,0.79
2013-8-20,86.0,70.4,62.0,75.0,66.3,-99.9,100,91,64,0.00,40.00,3,1,40,0.08
2013-8-21,86.0,73.3,65.0,75.0,70.2,65.0,100,91,68,0.00,40.00,2,0,46,0.00
2013-8-22,90.0,75.3,63.0,75.0,70.2,63.0,100,86,60,0.00,40.00,3,1,34,0.14
2013-8-23,88.0,71.9,64.0,75.0,68.5,62.0,100,90,61,0.00,40.00,5,0,160,0.01
2013-8-24,81.0,69.1,56.0,64.0,59.6,56.0,99,76,44,0.00,40.00,6,2,14,0.01
2013-8-25,82.0,66.6,53.0,65.0,57.8,-99.9,99,79,43,0.00,40.00,4,1,11,0.00
2013-8-26,87.0,66.6,53.0,68.0,61.2,53.0,99,86,52,0.00,40.00,3,0,7,0.00
2013-8-27,88.0,69.6,59.0,73.0,65.4,59.0,99,88,55,0.00,40.00,6,1,13,0.00
2013-8-28,91.0,83.1,73.0,78.0,75.5,72.0,99,79,64,0.00,40.00,1,0,8,0.00
2013-8-29,88.0,78.2,68.0,75.0,72.3,68.0,99,83,63,0.00,40.00,4,2,13,0.00
2013-8-30,89.0,75.1,67.0,72.0,70.1,67.0,99,86,52,0.00,40.00,2,0,8,0.00
2013-8-31,91.0,72.1,64.0,78.0,69.9,64.0,99,93,65,0.00,40.00,1,0,13,0.06